Location: Waco, TX
(31.5480°N, 97.1670°W)
Time: 15:53:22
(UTC-05:00)

ISS - Pass Details

Date: 20 October 2018
Orbit: 403 x 408 km, 51.6° (Epoch: 17 October)

Event Time Altitude Azimuth Distance (km) Brightness Sun altitude
Rises 09:44:06 0° 248° (WSW) 2,310 -0.3 24.6°
Reaches altitude 10° 09:46:23 10° 262° (W) 1,455 -1.4 25.1°
Maximum altitude 09:49:11 26° 321° (NW) 838 -2.5 25.6°
Drops below altitude 10° 09:52:00 10° 21° (NNE) 1,463 -1.0 26.1°
Sets 09:54:19 0° 34° (NE) 2,326 0.0 26.5°
